Flag for U.S.A. Weather past 2 weeks in Carson City, Nevada, U.S.A.

Now
27 °F

Clear.


Feels Like: 22 °F
Forecast: 23 / 51 °F
Wind: 5 mph from South

Location: Reno Tahoe International Airport

Current Time: Jan 31, 2015 at 5:20:05 AM

Latest Report: Jan 31, 2015 at 4:55 AM


Visibility: 10 mi

Pressure: 30.15 "Hg

Humidity: 89%

Dew point: 24 °F

Location of Carson CityLocation

Historic Weather in Carson City — Graph

°F

Carson City temperature yesterday

Maximum temperature yesterday: 53 °F (at 2:55 PM)
Minimum temperature yesterday: 37 °F (at 11:55 PM)
Average temperature yesterday: 45 °F

Past Weeks' High & Low Weather Summary

 TemperatureHumidityPressure
High63 °F (Jan 18, 12:55 PM)96% (Jan 17, 6:55 AM)30.60 "Hg (Jan 17, 6:55 AM)
Low24 °F (Jan 22, 5:55 AM)23% (Jan 18, 12:55 PM)29.98 "Hg (Jan 30, 3:55 PM)
Average42 °F60%30.26 "Hg
* Reported Jan 16 3:55 AM — Jan 31 3:55 AM, Carson City, Weather by CustomWeather, © 2014

Note: Actual official high and low records may vary slightly from our data, if they occured in-between our weather recording intervals... More about our weather records

Advertising

Carson City weather history for previous 24 hours

 ConditionsComfort  
Time TempWeatherWind HumidityBarometerVisibility
3:55 AM
Jan 31
29 °FClear.5 mph85%30.14 "Hg10 mi
2:55 AM32 °FClear.3 mph79%30.11 "Hg10 mi
1:55 AM34 °FClear.No wind73%30.11 "Hg10 mi
12:55 AM36 °FClear.No wind73%30.10 "Hg10 mi
11:55 PM
Jan 30
37 °FClear.No wind70%30.09 "Hg10 mi
10:55 PM40 °FPassing clouds.7 mph65%30.08 "Hg10 mi
9:55 PM41 °FPassing clouds.5 mph62%30.08 "Hg10 mi
8:55 PM42 °FPassing clouds.3 mph60%30.07 "Hg10 mi
7:55 PM44 °FPassing clouds.3 mph55%30.05 "Hg10 mi
6:55 PM45 °FPassing clouds.7 mph51%30.04 "Hg10 mi
5:55 PM47 °FPassing clouds.12 mph50%30.02 "Hg10 mi
4:55 PM49 °FPassing clouds.13 mph46%30.00 "Hg10 mi
3:55 PM53 °FPassing clouds.14 mph39%29.98 "Hg10 mi
2:55 PM53 °FScattered clouds.10 mph41%29.99 "Hg10 mi
1:55 PM52 °FScattered clouds.7 mph47%30.00 "Hg10 mi
12:55 PM52 °FBroken clouds.No wind49%30.03 "Hg10 mi
11:55 AM51 °FScattered clouds.8 mph54%30.06 "Hg10 mi
10:55 AM50 °FScattered clouds.6 mph57%30.09 "Hg10 mi
9:55 AM46 °FBroken clouds.3 mph66%30.10 "Hg10 mi
8:55 AM43 °FBroken clouds.3 mph71%30.11 "Hg10 mi
7:55 AM40 °FBroken clouds.No wind77%30.10 "Hg10 mi
6:55 AM39 °FPartly cloudy.No wind79%30.09 "Hg10 mi
5:55 AM41 °FPartly cloudy.No wind74%30.09 "Hg10 mi
Weather by CustomWeather, © 2014

See weather overviewHow to use our weather pages